Regional Weather Roundup
Issued by NWS

Home | Current Version | Previous Version | Graphics & Text | Print | Product List | Glossary On
Versions: 1 2 3 4 5 6 7 8 9 10 11 12 13 14 15 16 17 18 19 20 21 22 23 24 25 26 27 28 29 30 31 32 33 34 35 36 37 38 39 40 41 42 43 44 45 46 47 48 49 50
000
ASUS43 KLOT 271109
RWRIL

ILLINOIS REGIONAL WEATHER ROUNDUP
NATIONAL WEATHER SERVICE CHICAGO/ROMEOVILLE IL
600 AM CDT THU JUL 27 2017

NOTE: "FAIR" INDICATES FEW OR NO CLOUDS BELOW 12,000 FEET WITH NO
SIGNIFICANT WEATHER AND/OR OBSTRUCTIONS TO VISIBILITY.

* THESE STATIONS ARE NOT UNDER NWS QUALITY CONTROL. THEY ALSO MAY NOT
  REPORT WEATHER SUCH AS PRECIPITATION OR FOG.

ILZ001-002-007-009-015-016-024-271200-
NORTHWEST ILLINOIS

CITY           SKY/WX    TMP DP  RH WIND       PRES   REMARKS
MOLINE         CLOUDY    72  69  90 NE5       29.93S
STERLING*      CLOUDY    70  70 100 NE6       29.95R
SAVANNA*       CLOUDY    70  70 100 N3        29.95R FOG
$$

ILZ003-004-008-010-011-017-018-271200-
NORTH CENTRAL ILLINOIS

CITY           SKY/WX    TMP DP  RH WIND       PRES   REMARKS
ROCKFORD       CLOUDY    73  69  87 NE9       29.96R FOG
FREEPORT*      CLOUDY    69  69 100 N5        29.98R FOG
ROCHELLE*      CLOUDY    70  70  99 NE3       29.95R FOG
DE KALB*       CLOUDY    70  69  99 N3        29.96S FOG
PERU*          CLOUDY    71  70  95 CALM      29.93S
$$

ILZ005-006-012>014-019>023-271200-
NORTHEAST ILLINOIS

CITY           SKY/WX    TMP DP  RH WIND       PRES   REMARKS
CHICAGO-OHARE  MOCLDY    74  70  87 N6        29.94R
CHICAGO-MIDWAY CLOUDY    74  72  93 NW7       29.93S FOG
AURORA         CLOUDY    72  71  97 NE6       29.95R
LANSING*       CLOUDY    73  71  95 W3        29.93S FOG
JOLIET*        CLOUDY    73  73  97 CALM      29.94R
WAUKEGAN       CLOUDY    70  70 100 N3        29.94R FOG
DUPAGE AIRPORT CLOUDY    71  71 100 N3        29.94S
KANKAKEE*      CLOUDY    70  70  98 CALM      29.94R
WHEELING       CLOUDY    72  71  97 NE5       29.95R FOG
MORRIS*        CLOUDY    72  71  97 CALM      29.92S
ROMEOVILLE*    CLOUDY    72  69  90 N5        29.94R
NORTHERLY ISL    N/A     74  69  85 NW8         N/A
$$

LMZ740>746-271200-
SOUTHERN LAKE MICHIGAN

STATION/POSITION SKY/WX   TEMP    WIND        PRES    VSBY  WAVE
                          AIR SEA DIR/SP/G                  HT/PER
                          (F)     (DEG/KT/KT) (MB)    (MI)  (FT/S)
SOUTHERN BUOY              71 71   60/  8/  8 1013.2S         0
WILMETTE HARBOR            72 72  300/  2/  4   N/A           1/ 2
HARRISON CRIB              74     340/ 14/ 14   N/A
BURNHAM HARBOR             74                   N/A
CALUMET HARBOR             74     300/  3/  4 1013.0F
BURNS HARBOR               73     240/  3/  4 1013.5S
MICHIGAN CITY              72     240/  3/  3   N/A
MICHIGAN CITY 6N           73 74  290/  4/  6   N/A           1
ST. JOSEPH                 73 74  190/  2/  2 1013.2          0
$$

ILZ025>027-034>036-040-047-049-050-058-095>099-271200-
WEST-CENTRAL ILLINOIS

CITY           SKY/WX    TMP DP  RH WIND       PRES   REMARKS
QUINCY         CLOUDY    75  73  93 E3        29.93S
GALESBURG*     CLOUDY    71  71 100 CALM      29.95S FOG
MACOMB*        CLOUDY    73  73  99 CALM      29.96S FOG
JACKSONVILLE*  CLOUDY    74  73  98 S3        29.94S
PITTSFIELD*    CLOUDY    74  74  99 CALM      29.94F
$$

ILZ028>032-037-038-041>044-048-051>054-059>061-271200-
CENTRAL ILLINOIS

CITY           SKY/WX    TMP DP  RH WIND       PRES   REMARKS
PONTIAC        CLOUDY    72  72  98 SW3       29.94R
BLOOMINGTON    CLOUDY    72  71  97 SW9       29.95R
DECATUR        CLOUDY    73  72  96 S8        29.94S
PEORIA         FOG       73  73 100 W3        29.94R VSB 3/4
LACON*         CLOUDY    72  72 100 W3        29.93R FOG
LINCOLN*       CLOUDY    74  74 100 CALM      29.94R
SPRINGFIELD    CLOUDY    75  75 100 S7        29.94S
TAYLORVILLE    CLOUDY    72  72 100 SE5       29.95S
$$

ILZ033-039-045-046-055>057-062-063-271200-
EAST-CENTRAL ILLINOIS

CITY           SKY/WX    TMP DP  RH WIND       PRES   REMARKS
CHAMPAIGN      CLOUDY    73  71  93 SW6       29.94R
RANTOUL*       CLOUDY    73  73  98 CALM      29.94S FOG
MATTOON        RAIN      72  72 100 SW5       29.96R FOG
PARIS*         CLOUDY    73  72  99 SW9       29.96R
$$

ILZ079-100>102-271200-
SOUTHWEST ILLINOIS

CITY           SKY/WX    TMP DP  RH WIND       PRES   REMARKS
ALTON          RAIN      73  73 100 CALM      29.96R
BELLEVILLE     LGT RAIN  75  73  94 NE3       29.97R
CAHOKIA*       LGT RAIN  77  73  87 NE6       29.96R
SPARTA*        LGT RAIN  76  75  99 CALM      29.98R
$$

ILZ064>066-069>071-074>076-080>082-084>086-088>090-092>094-271200-
SOUTH-CENTRAL ILLINOIS

CITY           SKY/WX    TMP DP  RH WIND       PRES   REMARKS
CARBONDALE     LGT RAIN  79  76  90 W3        29.96R HX  83
CAIRO*         CLOUDY    77  75  92 SW3       29.96R
EFFINGHAM*     LGT RAIN  73  73 100 S6        29.98S
MARION         CLOUDY    81  81 100 W5        29.97R HX  91
MT. VERNON     LGT RAIN  73  72  96 NE5       29.97S
CENTRALIA*     HVY RAIN  74  74 100 CALM      29.98R VSB 1
SALEM*         HVY RAIN  74  73  94 CALM      29.98S
METROPOLIS*    CLOUDY    78  75  91 SW5       29.97R
$$

ILZ067-068-072-073-078-083-087-091-271200-
SOUTHEAST ILLINOIS

CITY           SKY/WX    TMP DP  RH WIND       PRES   REMARKS
LAWRENCEVILLE  RAIN      73  32  22 W5        29.97F
FLORA*         HVY RAIN  74  73  96 NW5       29.98R
FAIRFIELD*     RAIN      73  73 100 CALM      29.96S
HARRISBURG*    CLOUDY    77  75  92 CALM      29.96R
ROBINSON*      RAIN      71  71  99 CALM      29.98R
CARMI*         LGT RAIN  73  73  99 CALM      29.96R
$$

ABBREVIATIONS USED IN REMARKS
   TC - TEMPERATURE IN CELSIUS
  WCI - WIND CHILL INDEX
   HX - HEAT INDEX
  VSB - VISIBILITY
$$





USA.gov is the U.S. government's official web portal to all federal, state and local government web resources and services.